Weather History for Brno, Czech Republic

Change the Weather History Date:

Wednesday, October 3, 2012

  Actual Average Record
Temperature  
Mean Temperature 58 °F -  
Max Temperature 72 °F 56 °F - ()
Min Temperature 45 °F 40 °F - ()
Degree Days  
Heating Degree Days 6    
Growing Degree Days 8 (Base 50)    
Moisture  
Dew Point 45 °F    
Average Humidity 65    
Maximum Humidity 94    
Minimum Humidity 31    
Precipitation  
Precipitation 0.00 in 0.04 in - ()
Sea Level Pressure  
Sea Level Pressure 30.04 in    
Wind  
Wind Speed 5 mph ()    
Max Wind Speed 9 mph    
Max Gust Speed -    
Visibility 12.5 miles    
Events      
T = Trace of Precipitation, MM = Missing Value Source: Averaged Metar Reports

Daily Weather History Graph

Daily Weather History Graph

Search for Another Location

Airport:

Trip Planner

Search our weather history database for the weather conditions in past years. The results will help you decide how hot, cold, wet, or windy it might be!

Date:

Astronomy

Oct. 03, 2012 Rise Set
Actual Time 6:56 AM CEST 6:27 PM CEST
Civil Twilight 6:24 AM CEST 6:58 PM CEST
Nautical Twilight 5:47 AM CEST 7:35 PM CEST
Astronomical Twilight 5:10 AM CEST 8:12 PM CEST
Moon 7:46 PM CEST (10/3) 10:23 AM CEST (10/3)
Length of Visible Light 12h 34m
Length of Day
11h 31m
Waning Gibbous, 90% of the Moon is Illuminated
Oct 3
Waning Gibbous
Oct 8
Last Quarter
Oct 15
New
Oct 22
First Quarter
Oct 29
Full

Hourly Weather History & Observations

Time (CEST) Temp. Windchill Dew Point Humidity Pressure Visibility Wind Dir Wind Speed Gust Speed Precip Events Conditions
12:00 AM 51.8 °F - 48.2 °F 88% 30.06 in - Variable 2.3 mph - N/A   Clear
12:30 AM 51.8 °F - 48.2 °F 88% 30.06 in - NNW 2.3 mph - N/A   Clear
1:00 AM 51.8 °F - 48.2 °F 88% 30.04 in - WNW 8.1 mph - N/A   Clear
1:30 AM 50.0 °F - 48.2 °F 94% 30.04 in - WNW 5.8 mph - N/A   Clear
2:00 AM 50 °F - 47 °F 88% 30.07 in 6 mi WNW 8.9 mph - -   Scattered Clouds
2:00 AM 50.0 °F - 48.2 °F 94% 30.04 in - WNW 6.9 mph - N/A   Clear
2:30 AM 50.0 °F - 46.4 °F 87% 30.04 in - WNW 8.1 mph - N/A   Clear
3:00 AM 48.2 °F - 46.4 °F 93% 30.04 in - WNW 6.9 mph - N/A   Clear
3:30 AM 48.2 °F - 46.4 °F 93% 30.04 in - Variable 2.3 mph - N/A   Clear
4:00 AM 48.2 °F - 46.4 °F 93% 30.04 in - WNW 4.6 mph - N/A   Clear
4:30 AM 48.2 °F - 44.6 °F 87% 30.04 in - WNW 5.8 mph - N/A   Clear
5:00 AM 46.4 °F 43.5 °F 44.6 °F 93% 30.04 in - WNW 5.8 mph - N/A   Clear
5:30 AM 46.4 °F 43.5 °F 44.6 °F 93% 30.04 in - West 5.8 mph - N/A   Clear
6:00 AM 46.4 °F 42.9 °F 44.6 °F 93% 30.04 in - West 6.9 mph - N/A   Clear
6:30 AM 46.4 °F 44.3 °F 44.6 °F 93% 30.04 in - West 4.6 mph - N/A   Clear
7:00 AM 46.4 °F 45.2 °F 42.8 °F 87% 30.04 in - West 3.5 mph - N/A   Clear
7:30 AM 46.4 °F 42.4 °F 42.8 °F 87% 30.04 in - West 8.1 mph - N/A   Clear
8:00 AM 47 °F - 44 °F 85% 30.08 in 9 mi WNW 6.7 mph - -   Clear
8:00 AM 46.4 °F 42.4 °F 42.8 °F 87% 30.04 in - West 8.1 mph - N/A   Clear
8:30 AM 48.2 °F - 44.6 °F 87% 30.06 in - WNW 4.6 mph - N/A   Clear
9:00 AM 51.8 °F - 44.6 °F 76% 30.06 in - WNW 5.8 mph - N/A   Clear
9:30 AM 51.8 °F - 44.6 °F 76% 30.06 in - West 6.9 mph - N/A   Clear
10:00 AM 55.4 °F - 44.6 °F 67% 30.06 in - WNW 8.1 mph - N/A   Clear
10:30 AM 57.2 °F - 46.4 °F 67% 30.06 in - West 6.9 mph - N/A   Clear
11:00 AM 60.8 °F - 46.4 °F 59% 30.06 in - West 6.9 mph - N/A   Clear
11:30 AM 62.6 °F - 46.4 °F 55% 30.06 in - West 5.8 mph - N/A   Clear
12:00 PM 64.4 °F - 44.6 °F 49% 30.06 in - WNW 4.6 mph - N/A   Clear
12:30 PM 66.2 °F - 46.4 °F 49% 30.06 in - SW 5.8 mph - N/A   Clear
1:00 PM 66.2 °F - 46.4 °F 49% 30.04 in - WSW 5.8 mph - N/A   Clear
1:30 PM 68.0 °F - 46.4 °F 46% 30.04 in - Variable 3.5 mph - N/A   Clear
2:00 PM 69 °F - 45 °F 31% 30.02 in 16 mi SSW 6.7 mph - -   Scattered Clouds
2:00 PM 68.0 °F - 44.6 °F 43% 30.04 in - SW 4.6 mph - N/A   Clear
2:30 PM 69.8 °F - 42.8 °F 38% 30.04 in - Variable 3.5 mph - N/A   Clear
3:00 PM 71.6 °F - 41.0 °F 33% 30.01 in - WSW 9.2 mph - N/A   Clear
3:30 PM 71.6 °F - 41.0 °F 33% 30.01 in - West 8.1 mph - N/A   Clear
4:00 PM 71.6 °F - 42.8 °F 35% 30.01 in - WSW 6.9 mph - N/A   Clear
4:30 PM 71.6 °F - 42.8 °F 35% 30.01 in - SW 8.1 mph - N/A   Clear
5:00 PM 71.6 °F - 41.0 °F 33% 30.01 in - SSW 8.1 mph - N/A   Clear
5:30 PM 69.8 °F - 41.0 °F 35% 30.01 in - SSW 6.9 mph - N/A   Clear
6:00 PM 68.0 °F - 42.8 °F 40% 30.01 in - SW 6.9 mph - N/A   Clear
6:30 PM 64.4 °F - 42.8 °F 45% 30.01 in - SSW 6.9 mph - N/A   Clear
7:00 PM 64.4 °F - 42.8 °F 45% 30.01 in - South 4.6 mph - N/A   Clear
7:30 PM 62.6 °F - 42.8 °F 48% 30.01 in - South 4.6 mph - N/A   Clear
8:00 PM 60 °F - 42 °F 40% 30.02 in 19 mi SW 2.2 mph - -   Clear
8:00 PM 60.8 °F - 42.8 °F 52% 30.01 in - SSW 3.5 mph - N/A   Clear
8:30 PM 59.0 °F - 42.8 °F 55% 30.01 in - Variable 2.3 mph - N/A   Clear
9:00 PM 60.8 °F - 44.6 °F 55% 30.04 in - NE 3.5 mph - N/A   Clear
9:30 PM 59.0 °F - 44.6 °F 59% 30.04 in - NE 4.6 mph - N/A   Clear
10:00 PM 59.0 °F - 44.6 °F 59% 30.04 in - NE 5.8 mph - N/A   Clear
10:30 PM 57.2 °F - 44.6 °F 63% 30.01 in - NE 5.8 mph - N/A   Clear
11:00 PM 55.4 °F - 44.6 °F 67% 30.01 in - NE 5.8 mph - N/A   Clear
11:30 PM 55.4 °F - 44.6 °F 67% 30.04 in - NNE 5.8 mph - N/A   Clear